Location: Hiram
(41.3130°N, 81.1440°W)
Time: 13:27:53
(UTC-04:00)

Amateur Radio Satellites - All Passes

Search period start: 19 April 2014 12:57
Search period end: 20 April 2014 12:57
Location: Hiram, 41.3130°N, 81.1440°W

Satellite Date Start Highest point End Downlink Frequencies (MHz)
Time Altitude Azimuth
Uribyol 2 19 Apr 13:19:02 13:22:11 17° 61° (ENE) 13:25:21 436.500 FM
KITSAT 1 19 Apr 13:50:55 13:58:25 44° 250° (WSW) 14:05:53 435.175 FM
Gurwin Techsat 1B 19 Apr 13:53:49 13:54:23 10° 57° (ENE) 13:54:56 435.225 FM
AO-27 19 Apr 13:57:21 14:02:01 35° 68° (ENE) 14:06:41 436.795 MHz FM
ITAMSAT 1 19 Apr 14:07:51 14:12:42 43° 70° (ENE) 14:17:34 435.822 SSB
Oscar 19 19 Apr 14:12:34 14:17:42 87° 75° (ENE) 14:22:53 437.125 CW, 437.150 USB
AO-Echo 19 Apr 14:15:47 14:20:39 40° 70° (ENE) 14:25:25 ?
Oscar 16 19 Apr 14:20:52 14:25:59 74° 257° (WSW) 14:31:10 437.025 USB, Beacon 2401.1428
TMSAT-1 19 Apr 14:38:33 14:42:14 20° 63° (ENE) 14:45:55 436.925 FM
Uribyol 2 19 Apr 14:56:00 15:01:07 66° 258° (WSW) 15:06:16 436.500 FM
AO-7 19 Apr 15:01:39 15:07:04 20° 50° (NE) 15:12:30 29.400 - 29.500 MHz
RS-15 19 Apr 15:08:22 15:18:28 40° 40° (NE) 15:28:42 29.354 - 29.394 USB, Beacon 29.352 USB
SO-50 19 Apr 15:12:06 15:14:50 16° 110° (ESE) 15:17:34 436.795 FM
JAS-1B 19 Apr 15:19:44 15:26:31 32° 66° (ENE) 15:32:22 435.800 - 435.900 CW/SSB
OPAL 19 Apr 15:25:43 15:30:01 25° 97° (E) 15:34:18 ?
Gurwin Techsat 1B 19 Apr 15:28:08 15:33:24 74° 74° (ENE) 15:38:43 435.225 FM
AO-27 19 Apr 15:37:05 15:41:32 29° 264° (W) 15:46:01 436.795 MHz FM
ISS 19 Apr 15:47:48 15:50:59 43° 138° (SE) 15:54:11 145.800 FM
ITAMSAT 1 19 Apr 15:48:16 15:52:21 23° 266° (W) 15:56:27 435.822 SSB
AO-Echo 19 Apr 15:55:14 15:59:30 25° 265° (W) 16:03:43 ?
Oscar 19 19 Apr 15:56:40 15:57:42 11° 272° (W) 15:58:45 437.125 CW, 437.150 USB
Uosat F 19 Apr 16:12:42 16:17:34 52° 71° (ENE) 16:22:27 435.120 FM
TMSAT-1 19 Apr 16:16:30 16:21:42 57° 259° (W) 16:26:55 436.925 FM
Oscar 10/S400 19 Apr 16:27:34 16:44:34 10° 277° (W) 17:03:29 145.825 - 145.975 CW/USB, Beacon 145.810 USB
AO-7 19 Apr 16:50:23 16:58:39 82° 70° (ENE) 17:06:58 29.400 - 29.500 MHz
SO-50 19 Apr 16:50:32 16:54:56 55° 306° (NW) 16:59:23 436.795 FM
OPAL 19 Apr 17:04:08 17:09:00 41° 293° (WNW) 17:13:51 ?
JAS-1B 19 Apr 17:09:00 17:16:57 51° 259° (W) 17:23:39 435.800 - 435.900 CW/SSB
Gurwin Techsat 1B 19 Apr 17:11:22 17:13:55 14° 271° (W) 17:16:29 435.225 FM
RS-15 19 Apr 17:20:45 17:31:34 69° 244° (WSW) 17:42:42 29.354 - 29.394 USB, Beacon 29.352 USB
ISS 19 Apr 17:24:51 17:27:49 29° 336° (NNW) 17:30:48 145.800 FM
UOSAT-12 19 Apr 17:33:57 17:37:36 24° 112° (ESE) 17:41:19 437.025 FM, 437.400 FM
Uosat F 19 Apr 17:53:15 17:56:39 18° 267° (W) 18:00:04 435.120 FM
SO-50 19 Apr 18:36:15 18:36:32 10° 327° (NNW) 18:36:49 436.795 FM
JAS-2 19 Apr 18:41:44 18:46:26 27° 67° (ENE) 18:50:51 435.800 - 435.900 CW/SSB, 435.910 FM
AO-7 19 Apr 18:46:31 18:52:17 21° 268° (W) 18:58:07 29.400 - 29.500 MHz
SO-67 19 Apr 18:46:38 18:47:35 11° 65° (ENE) 18:48:32 435.3500 MHz FM
Hamsat 19 Apr 18:57:22 19:01:33 81° 258° (WSW) 19:05:49 145.90 MHz
ISS 19 Apr 19:03:28 19:05:23 14° 356° (N) 19:07:19 145.800 FM
UOSAT-12 19 Apr 19:13:14 19:17:32 40° 310° (NW) 19:21:56 437.025 FM, 437.400 FM
Saudisat 1A 19 Apr 19:21:30 19:24:44 19° 43° (NE) 19:27:56 436.775 MHz
RS-15 19 Apr 19:37:07 19:41:45 14° 264° (W) 19:46:27 29.354 - 29.394 USB, Beacon 29.352 USB
STRAND 1 19 Apr 19:42:13 19:47:02 41° 99° (E) 19:51:50 ?
SO-67 19 Apr 20:16:58 20:20:19 45° 261° (W) 20:23:42 435.3500 MHz FM
JAS-2 19 Apr 20:25:55 20:31:25 40° 261° (W) 20:36:28 435.800 - 435.900 CW/SSB, 435.910 FM
ISS 19 Apr 20:40:35 20:43:07 19° 16° (NNE) 20:45:38 145.800 FM
Saudisat 1A 19 Apr 21:00:21 21:04:41 56° 241° (WSW) 21:08:56 436.775 MHz
HO-68 19 Apr 21:05:56 21:12:46 52° 67° (ENE) 21:19:38 435.675 MHz FM
STRAND 1 19 Apr 21:21:57 21:25:59 24° 295° (WNW) 21:30:00 ?
FUNcube-1 19 Apr 22:02:16 22:04:45 16° 65° (ENE) 22:07:13 145.950 - 145.970 MHz USB
Oscar 11 19 Apr 22:09:22 22:13:35 59° 74° (ENE) 22:17:51 145.825 FM, Beacon 2401.500 USB
MaSat-1 19 Apr 22:14:14 22:17:11 80° 115° (ESE) 22:19:48 437.345 MHz
ISS 19 Apr 22:16:55 22:20:17 79° 35° (NE) 22:23:38 145.800 FM
HO-68 19 Apr 22:54:35 23:00:42 30° 264° (W) 23:06:51 435.675 MHz FM
FUNcube-1 19 Apr 23:36:46 23:40:49 45° 261° (W) 23:44:50 145.950 - 145.970 MHz USB
SO-50 19 Apr 23:42:20 23:45:42 19° 42° (NE) 23:49:05 436.795 FM
Oscar 11 19 Apr 23:48:32 23:50:10 12° 270° (W) 23:51:48 145.825 FM, Beacon 2401.500 USB
ISS 19 Apr 23:55:12 23:56:35 12° 231° (SW) 23:57:57 145.800 FM
Sapphire 20 Apr 00:23:20 00:27:41 25° 108° (ESE) 00:32:02 437.095 MHz 1200 baud AX-25 AFSK
PCSat 20 Apr 01:06:57 01:12:16 65° 115° (ESE) 01:17:39 145.825 MHz
SO-50 20 Apr 01:22:04 01:26:40 63° 241° (WSW) 01:31:19 436.795 FM
Oscar 10/S400 20 Apr 01:49:07 02:01:39 17° 129° (SE) 02:21:36 145.825 - 145.975 CW/USB, Beacon 145.810 USB
UOSAT-12 20 Apr 02:02:53 02:06:49 25° 45° (NE) 02:10:43 437.025 FM, 437.400 FM
Sapphire 20 Apr 02:05:37 02:10:48 46° 305° (NW) 02:16:02 437.095 MHz 1200 baud AX-25 AFSK
AO-27 20 Apr 02:12:25 02:14:14 12° 89° (E) 02:16:02 436.795 MHz FM
ITAMSAT 1 20 Apr 02:22:06 02:24:57 15° 91° (E) 02:27:48 435.822 SSB
Oscar 19 20 Apr 02:24:34 02:29:09 31° 96° (E) 02:33:43 437.125 CW, 437.150 USB
KITSAT 1 20 Apr 02:24:41 02:31:21 29° 106° (ESE) 02:38:02 435.175 FM
AO-Echo 20 Apr 02:25:44 02:27:00 11° 89° (E) 02:28:16 ?
Oscar 16 20 Apr 02:32:44 02:37:36 39° 98° (E) 02:42:27 437.025 USB, Beacon 2401.1428
OPAL 20 Apr 02:40:32 02:45:17 45° 68° (ENE) 02:50:08 ?
PCSat 20 Apr 02:52:03 02:56:10 22° 315° (NW) 03:00:18 145.825 MHz
Uribyol 2 20 Apr 03:08:47 03:13:44 44° 99° (E) 03:18:40 436.500 FM
UOSAT-12 20 Apr 03:42:40 03:47:10 45° 243° (WSW) 03:51:37 437.025 FM, 437.400 FM
Gurwin Techsat 1B 20 Apr 03:44:48 03:49:25 29° 95° (E) 03:53:59 435.225 FM
AO-27 20 Apr 03:49:09 03:54:21 81° 285° (WNW) 03:59:31 436.795 MHz FM
ITAMSAT 1 20 Apr 03:59:46 04:04:54 66° 287° (WNW) 04:10:01 435.822 SSB
AO-Echo 20 Apr 04:01:35 04:06:22 74° 285° (WNW) 04:11:02 ?
Oscar 19 20 Apr 04:03:51 04:08:28 33° 292° (WNW) 04:13:03 437.125 CW, 437.150 USB
Oscar 16 20 Apr 04:12:30 04:16:45 26° 295° (WNW) 04:21:00 437.025 USB, Beacon 2401.1428
KITSAT 1 20 Apr 04:18:08 04:26:10 64° 305° (NW) 04:34:16 435.175 FM
OPAL 20 Apr 04:20:33 04:24:22 22° 265° (W) 04:28:16 ?
Uosat F 20 Apr 04:21:46 04:24:45 16° 91° (E) 04:27:42 435.120 FM
TMSAT-1 20 Apr 04:32:14 04:37:28 58° 101° (E) 04:42:40 436.925 FM
Uribyol 2 20 Apr 04:48:54 04:52:56 24° 296° (WNW) 04:56:57 436.500 FM
AO-7 20 Apr 04:52:45 04:59:31 27° 94° (E) 05:06:14 29.400 - 29.500 MHz
JAS-1B 20 Apr 04:53:50 04:59:12 41° 99° (E) 05:04:46 435.800 - 435.900 CW/SSB
Gurwin Techsat 1B 20 Apr 05:24:36 05:29:23 35° 292° (WNW) 05:34:09 435.225 FM
AO-27 20 Apr 05:31:46 05:33:00 11° 303° (WNW) 05:34:14 436.795 MHz FM
RS-15 20 Apr 05:36:48 05:43:39 19° 99° (E) 05:50:21 29.354 - 29.394 USB, Beacon 29.352 USB
Uosat F 20 Apr 05:59:00 06:03:55 59° 288° (WNW) 06:08:49 435.120 FM
TMSAT-1 20 Apr 06:13:18 06:16:56 19° 298° (WNW) 06:20:33 436.925 FM
KITSAT 1 20 Apr 06:17:44 06:23:20 20° 329° (NNW) 06:28:57 435.175 FM
MaSat-1 20 Apr 06:38:01 06:39:45 14° 58° (ENE) 06:41:37 437.345 MHz
Hamsat 20 Apr 06:44:08 06:47:11 18° 93° (E) 06:50:13 145.90 MHz
AO-7 20 Apr 06:44:37 06:52:50 67° 293° (WNW) 07:01:03 29.400 - 29.500 MHz
JAS-1B 20 Apr 06:45:09 06:49:43 26° 296° (WNW) 06:54:23 435.800 - 435.900 CW/SSB
STRAND 1 20 Apr 06:58:07 07:03:09 61° 73° (ENE) 07:08:12 ?
JAS-2 20 Apr 07:34:00 07:38:16 23° 95° (E) 07:42:49 435.800 - 435.900 CW/SSB, 435.910 FM
RS-15 20 Apr 07:42:53 07:54:14 81° 119° (ESE) 08:05:13 29.354 - 29.394 USB, Beacon 29.352 USB
SO-67 20 Apr 07:43:01 07:44:31 12° 91° (E) 07:46:00 435.3500 MHz FM
PCSat 20 Apr 08:14:15 08:15:29 11° 35° (NE) 08:16:43 145.825 MHz
MaSat-1 20 Apr 08:15:27 08:18:09 28° 248° (WSW) 08:21:15 437.345 MHz
Hamsat 20 Apr 08:19:15 08:23:18 39° 288° (WNW) 08:27:22 145.90 MHz
KITSAT 1 20 Apr 08:21:00 08:22:47 11° 360° (N) 08:24:34 435.175 FM
AO-7 20 Apr 08:39:37 08:44:06 16° 313° (NW) 08:48:36 29.400 - 29.500 MHz
STRAND 1 20 Apr 08:39:43 08:42:45 16° 269° (W) 08:45:47 ?
Sapphire 20 Apr 09:10:36 09:14:56 24° 47° (NE) 09:19:14 437.095 MHz 1200 baud AX-25 AFSK
SO-67 20 Apr 09:14:35 09:17:50 36° 287° (WNW) 09:21:04 435.3500 MHz FM
JAS-2 20 Apr 09:18:24 09:23:33 48° 289° (WNW) 09:29:11 435.800 - 435.900 CW/SSB, 435.910 FM
PANSAT 20 Apr 09:53:56 09:55:10 11° 174° (S) 09:56:24 not established
PCSat 20 Apr 09:54:54 10:00:13 52° 56° (NE) 10:05:29 145.825 MHz
RS-15 20 Apr 09:57:52 10:07:48 35° 324° (NW) 10:17:35 29.354 - 29.394 USB, Beacon 29.352 USB
Oscar 11 20 Apr 09:59:38 10:00:44 11° 89° (E) 10:01:51 145.825 FM, Beacon 2401.500 USB
KITSAT 1 20 Apr 10:16:38 10:22:14 20° 31° (NNE) 10:27:48 435.175 FM
HO-68 20 Apr 10:20:48 10:27:48 53° 101° (E) 10:34:47 435.675 MHz FM
Sapphire 20 Apr 10:53:25 10:58:44 57° 246° (WSW) 11:04:00 437.095 MHz 1200 baud AX-25 AFSK
Saudisat 1A 20 Apr 11:06:57 11:11:03 37° 116° (ESE) 11:15:11 436.775 MHz
FUNcube-1 20 Apr 11:25:52 11:29:41 31° 97° (E) 11:33:34 145.950 - 145.970 MHz USB
Oscar 11 20 Apr 11:33:02 11:37:22 66° 285° (WNW) 11:41:41 145.825 FM, Beacon 2401.500 USB
PANSAT 20 Apr 11:33:23 11:34:36 11° 187° (S) 11:35:49 not established
PCSat 20 Apr 11:39:08 11:43:15 22° 253° (WSW) 11:47:20 145.825 MHz
HO-68 20 Apr 12:09:03 12:15:10 32° 299° (WNW) 12:21:17 435.675 MHz FM
KITSAT 1 20 Apr 12:11:19 12:19:24 64° 55° (NE) 12:27:23 435.175 FM
RS-15 20 Apr 12:17:13 12:24:46 20° 359° (N) 12:32:18 29.354 - 29.394 USB, Beacon 29.352 USB
Saudisat 1A 20 Apr 12:46:57 12:50:45 27° 313° (NW) 12:54:33 436.775 MHz
